Location: Ajisawe
(8.4333°N, 4.3833°E)
Time: 16:28:35
(UTC+00:00)

S-56A Canister/Altair - Visible Passes

Search period start: 19 April 2021 00:00
Search period end: 29 April 2021 00:00
Orbit: 632 x 2500 km, 38.9° (Epoch: 18 April)

Date Brightness Start Highest point End Pass type
(mag) Time Alt. Az. Time Alt. Az. Time Alt. Az.
19 Apr 10.4 04:53:03 10° NNE 04:53:57 10° NE 04:54:53 10° NE visible
19 Apr 9.1 19:41:48 10° SW 19:55:16 81° SE 19:58:46 48° ENE visible
19 Apr 10.8 21:51:39 10° W 21:56:18 21° WNW 21:56:18 21° WNW visible
20 Apr 9.3 19:08:05 10° SW 19:22:01 72° SE 19:29:16 22° ENE visible
20 Apr 10.2 21:17:12 10° W 21:26:49 33° NW 21:26:49 33° NW visible
21 Apr 9.6 18:34:26 10° SW 18:48:41 64° SE 18:58:51 10° ENE visible
21 Apr 10.0 20:42:52 10° WSW 20:54:13 41° NW 20:57:22 33° N visible
22 Apr 9.8 18:00:54 10° SW 18:15:14 57° SE 18:25:57 10° ENE visible
22 Apr 10.0 20:08:37 10° WSW 20:21:07 49° NW 20:27:53 19° NNE visible
22 Apr 11.2 22:24:54 10° NW 22:25:27 10° NW 22:25:27 10° NW visible
23 Apr 9.0 04:43:28 10° NNW 04:47:27 32° NE 04:52:00 10° ESE visible
23 Apr 9.9 19:34:28 10° WSW 19:47:57 57° NW 19:57:23 10° NE visible
23 Apr 11.0 21:48:33 10° WNW 21:53:37 14° NW 21:55:52 13° NNW visible
24 Apr 9.3 04:11:17 10° NNW 04:14:54 24° NE 04:18:48 10° E visible
24 Apr 9.9 19:00:25 10° WSW 19:14:40 66° NW 19:24:52 10° NE visible
24 Apr 11.0 21:13:15 10° WNW 21:20:28 18° NW 21:26:10 10° N visible
25 Apr 9.6 03:39:09 10° N 03:42:19 19° NE 03:45:32 10° E visible
25 Apr 9.9 18:26:30 10° SW 18:41:19 75° NW 18:52:14 10° NE visible
25 Apr 11.0 20:38:14 10° W 20:47:16 23° NW 20:54:18 10° NNE visible
26 Apr 9.8 03:08:19 13° NNE 03:09:40 15° NNE 03:12:11 10° ENE visible
26 Apr 10.0 17:52:42 10° SW 18:07:52 84° NW 18:19:28 10° NE visible
26 Apr 10.9 20:03:26 10° W 20:14:02 28° NW 20:22:09 10° NNE visible
27 Apr 10.3 02:38:27 10° NE 02:38:27 10° NE 02:38:37 10° NE visible
27 Apr 7.1 04:36:31 10° WNW 04:40:53 65° SW 04:45:44 10° SE visible
27 Apr 10.9 19:28:48 10° W 19:40:43 33° NW 19:49:50 10° NNE visible
28 Apr 7.0 04:06:12 29° NW 04:08:24 87° SW 04:13:04 10° SE visible
28 Apr 10.9 18:54:20 10° WSW 19:07:21 39° NW 19:17:24 10° NNE visible
28 Apr 11.4 21:12:40 10° NW 21:14:40 11° NNW 21:16:33 10° NNW visible
